IA5ITY-13 Weather Reports


Display with metric or nautical units.
time (UTC)temp
F
wind
direction
speed
MPH
gust
MPH
rain 1hr
in
rain 24hr
in
rain mn
in
humidity
%
barometer
mb
20260503195012 61 93 0.0 0.0 0.00 0.00 0.00 80 1017.9
20260503194511 61 82 0.0 0.0 0.00 0.00 0.00 79 1017.8
20260503194012 61 54 1.0 1.0 0.00 0.00 0.00 79 1017.8
20260503193508 61 71 1.0 2.0 0.00 0.00 0.00 79 1017.7
20260503193022 61 61 2.0 2.0 0.00 0.00 0.00 78 1017.7
20260503192509 61 59 1.0 1.0 0.00 0.00 0.00 79 1017.8
20260503192013 61 85 1.0 1.0 0.00 0.00 0.00 79 1017.7
20260503191512 61 74 0.0 0.0 0.00 0.00 0.00 79 1017.6
20260503191011 61 68 0.0 0.0 0.00 0.00 0.00 78 1017.6
20260503190508 61 67 0.0 0.0 0.00 0.00 0.00 78 1017.6
20260503190029 61 99 0.0 0.0 0.00 0.00 0.00 78 1017.5
20260503185509 61 101 0.0 0.0 0.00 0.00 0.00 78 1017.5
20260503185013 61 135 0.0 0.0 0.00 0.00 0.00 78 1017.5
20260503184512 61 100 0.0 0.0 0.00 0.00 0.00 78 1017.4
20260503184012 61 74 0.0 0.0 0.00 0.00 0.00 77 1017.3
20260503183509 61 85 0.0 0.0 0.00 0.00 0.00 77 1017.3
20260503183022 61 94 0.0 0.0 0.00 0.00 0.00 77 1017.2
20260503182508 61 94 0.0 0.0 0.00 0.00 0.00 76 1017.2
20260503182012 61 84 0.0 0.0 0.00 0.00 0.00 76 1017.2
20260503181512 61 88 0.0 0.0 0.00 0.00 0.00 76 1017.2
20260503181012 61 91 0.0 0.0 0.00 0.00 0.00 75 1017.2
20260503180508 63 90 0.0 0.0 0.00 0.00 0.00 75 1017.2
20260503180028 63 122 0.0 0.0 0.00 0.00 0.00 75 1017.3
20260503175509 63 102 0.0 0.0 0.00 0.00 0.00 74 1017.2
20260503175013 63 96 0.0 0.0 0.00 0.00 0.00 74 1017.2
20260503174512 63 101 0.0 0.0 0.00 0.00 0.00 74 1017.2
20260503174012 63 126 0.0 0.0 0.00 0.00 0.00 74 1017.1
20260503173509 63 86 0.0 0.0 0.00 0.00 0.00 73 1017.1
20260503173022 63 138 0.0 0.0 0.00 0.00 0.00 74 1017.1
20260503172509 64 120 0.0 0.0 0.00 0.00 0.00 72 1017.0
20260503172012 64 73 0.0 0.0 0.00 0.00 0.00 73 1017.0
20260503171512 64 130 0.0 0.0 0.00 0.00 0.00 73 1017.2
20260503171014 64 179 0.0 0.0 0.00 0.00 0.00 73 1017.2
20260503170509 64 184 0.0 0.0 0.00 0.00 0.00 71 1017.2
20260503151012 66 163 0.0 0.0 0.00 0.00 0.00 65 1017.3
20260503150510 68 206 2.0 2.0 0.00 0.00 0.00 63 1017.3
20260503131013 68 164 0.0 0.0 0.00 0.00 0.00 56 1018.3
20260503110509 70 133 0.0 0.0 0.00 0.00 0.00 57 1019.9
20260503090508 66 130 0.0 0.0 0.00 0.00 0.00 64 1019.7
20260503081512 64 121 1.0 1.0 0.00 0.00 0.00 67 1019.5
20260503081012 64 166 0.0 0.0 0.00 0.00 0.00 66 1019.4
20260503080508 64 144 0.0 0.0 0.00 0.00 0.00 68 1019.4
20260503072508 64 197 0.0 0.0 0.00 0.00 0.00 62 1019.1
20260503072012 64 91 0.0 0.0 0.00 0.00 0.00 63 1019.2
20260503071512 64 168 1.0 1.0 0.00 0.00 0.00 60 1019.3
20260503071012 66 139 1.0 1.0 0.00 0.00 0.00 59 1019.2
20260503070509 66 154 0.0 0.0 0.00 0.00 0.00 56 1019.2
20260503055012 61 92 0.0 0.0 0.00 0.00 0.00 52 1019.3
20260503054511 61 82 1.0 1.0 0.00 0.00 0.00 54 1019.3
20260503054012 63 36 0.0 0.0 0.00 0.00 0.00 54 1019.3
20260503053508 61 33 0.0 0.0 0.00 0.00 0.00 48 1019.3
20260503053021 59 59 0.0 0.0 0.00 0.00 0.00 51 1019.2
20260503052508 57 70 0.0 0.0 0.00 0.00 0.00 56 1019.2
20260503052012 55 74 1.0 2.0 0.00 0.00 0.00 57 1019.2
20260503051512 55 60 0.0 0.0 0.00 0.00 0.00 57 1019.2
20260503051012 55 57 1.0 1.0 0.00 0.00 0.00 57 1019.2
20260503050508 55 62 1.0 1.0 0.00 0.00 0.00 57 1019.2
20260503050029 55 55 0.0 0.0 0.00 0.00 0.00 58 1019.3
20260503045511 55 40 0.0 0.0 0.00 0.00 0.00 59 1019.3
20260503045012 55 24 3.0 3.0 0.00 0.00 0.00 61 1019.3
20260503044511 55 47 0.0 0.0 0.00 0.00 0.00 62 1019.3
20260503044011 55 31 0.0 0.0 0.00 0.00 0.00 63 1019.3
20260503043508 55 36 0.0 0.0 0.00 0.00 0.00 64 1019.3
20260503043021 55 65 1.0 1.0 0.00 0.00 0.00 65 1019.3
20260503042509 55 57 1.0 7.0 0.00 0.00 0.00 67 1019.4
20260503042012 55 43 2.0 2.0 0.00 0.00 0.00 67 1019.3
20260503041511 55 68 0.0 0.0 0.00 0.00 0.00 66 1019.3
20260503041012 55 53 1.0 2.0 0.00 0.00 0.00 67 1019.3
20260503040509 55 62 1.0 1.0 0.00 0.00 0.00 65 1019.4
20260503040030 54 42 0.0 0.0 0.00 0.00 0.00 63 1019.4
20260503035508 54 42 4.0 5.0 0.00 0.00 0.00 64 1019.4
20260503035012 54 61 0.0 0.0 0.00 0.00 0.00 62 1019.4
20260503034512 54 53 2.0 2.0 0.00 0.00 0.00 61 1019.4
20260503034012 55 45 1.0 1.0 0.00 0.00 0.00 61 1019.3
20260503033508 55 55 0.0 0.0 0.00 0.00 0.00 59 1019.3
20260503033021 55 79 0.0 0.0 0.00 0.00 0.00 60 1019.3
20260503032509 54 36 4.0 4.0 0.00 0.00 0.00 57 1019.3
20260503032012 54 56 0.0 0.0 0.00 0.00 0.00 56 1019.3
20260503031512 54 57 0.0 0.0 0.00 0.00 0.00 55 1019.3
20260503031012 54 59 0.0 0.0 0.00 0.00 0.00 54 1019.3
20260503030508 54 54 1.0 1.0 0.00 0.00 0.00 53 1019.3
20260503030032 54 54 0.0 0.0 0.00 0.00 0.00 52 1019.3
20260503025509 54 43 1.0 1.0 0.00 0.00 0.00 51 1019.3
20260503025012 54 33 0.0 0.0 0.00 0.00 0.00 49 1019.4
20260503024511 54 41 0.0 0.0 0.00 0.00 0.00 49 1019.3
20260503024012 54 30 0.0 0.0 0.00 0.00 0.00 48 1019.3
20260503023508 54 51 0.0 0.0 0.00 0.00 0.00 47 1019.3
20260503023021 55 26 0.0 0.0 0.00 0.00 0.00 45 1019.3
20260503022509 55 33 0.0 0.0 0.00 0.00 0.00 43 1019.3
20260503022012 54 72 1.0 1.0 0.00 0.00 0.00 45 1019.3
20260503021512 55 81 0.0 0.0 0.00 0.00 0.00 44 1019.2
20260503021012 55 52 0.0 0.0 0.00 0.00 0.00 43 1019.2
20260503020509 55 68 0.0 0.0 0.00 0.00 0.00 43 1019.2
20260503020031 57 73 0.0 0.0 0.00 0.00 0.00 40 1019.2
20260503015508 55 65 0.0 0.0 0.00 0.00 0.00 42 1019.2
20260503015012 55 61 0.0 0.0 0.00 0.00 0.00 42 1019.2
20260503014512 55 63 0.0 0.0 0.00 0.00 0.00 41 1019.2
20260503014012 55 62 0.0 0.0 0.00 0.00 0.00 41 1019.2
20260503013508 55 25 0.0 0.0 0.00 0.00 0.00 41 1019.2
20260503013021 55 65 0.0 0.0 0.00 0.00 0.00 41 1019.2
20260503012509 55 61 0.0 0.0 0.00 0.00 0.00 41 1019.3
20260503012013 55 48 0.0 0.0 0.00 0.00 0.00 41 1019.3
20260503011512 57 39 0.0 0.0 0.00 0.00 0.00 40 1019.4
20260503011012 55 46 0.0 0.0 0.00 0.00 0.00 43 1019.4
20260503010508 55 56 0.0 0.0 0.00 0.00 0.00 44 1019.4
20260503010031 55 45 0.0 0.0 0.00 0.00 0.00 44 1019.5
20260503005509 55 54 0.0 0.0 0.00 0.00 0.00 44 1019.5
20260503005012 55 57 0.0 0.0 0.00 0.00 0.00 43 1019.6
20260503004511 55 59 0.0 0.0 0.00 0.00 0.00 43 1019.7
20260503004012 55 44 0.0 0.0 0.00 0.00 0.00 43 1019.7
20260503003508 57 65 0.0 0.0 0.00 0.00 0.00 41 1019.7
20260503003021 55 55 0.0 0.0 0.00 0.00 0.00 44 1019.8
20260503002508 55 79 1.0 1.0 0.00 0.00 0.00 44 1019.8
20260503002012 55 52 0.0 0.0 0.00 0.00 0.00 45 1019.8
20260503001511 55 76 1.0 1.0 0.00 0.00 0.00 45 1019.9
20260503001012 55 49 0.0 0.0 0.00 0.00 0.00 45 1020.0
20260503000509 55 35 0.0 0.0 0.00 0.00 0.00 46 1020.0
20260503000034 55 64 0.0 0.0 0.00 0.00 0.00 45 1020.1
20260502235508 55 75 0.0 0.0 0.00 0.00 0.00 45 1020.1
20260502235012 55 67 1.0 1.0 0.00 0.00 0.00 45 1020.1
20260502234511 55 65 0.0 0.0 0.00 0.00 0.00 45 1020.1
20260502234012 55 76 0.0 0.0 0.00 0.00 0.00 45 1020.1
20260502233509 55 69 1.0 1.0 0.00 0.00 0.00 45 1020.2
20260502233021 55 76 0.0 0.0 0.00 0.00 0.00 46 1020.2
20260502232509 55 58 1.0 2.0 0.00 0.00 0.00 46 1020.2
20260502232013 55 59 6.0 6.0 0.00 0.00 0.00 46 1020.2
20260502231511 55 62 0.0 0.0 0.00 0.00 0.00 47 1020.2
20260502231012 55 58 0.0 0.0 0.00 0.00 0.00 48 1020.3
20260502230509 55 32 0.0 0.0 0.00 0.00 0.00 49 1020.4
20260502230030 55 39 1.0 1.0 0.00 0.00 0.00 51 1020.4
20260502225509 55 71 1.0 1.0 0.00 0.00 0.00 52 1020.4
20260502225012 55 60 0.0 0.0 0.00 0.00 0.00 53 1020.4
20260502224511 55 60 0.0 0.0 0.00 0.00 0.00 53 1020.4
20260502224012 55 53 0.0 0.0 0.00 0.00 0.00 53 1020.4
20260502223509 55 56 0.0 0.0 0.00 0.00 0.00 52 1020.4
20260502223021 55 47 0.0 0.0 0.00 0.00 0.00 52 1020.5
20260502222508 55 38 0.0 0.0 0.00 0.00 0.00 54 1020.6
20260502222012 55 44 0.0 0.0 0.00 0.00 0.00 55 1020.6
20260502221512 55 74 0.0 0.0 0.00 0.00 0.00 54 1020.6
20260502221012 55 59 0.0 0.0 0.00 0.00 0.00 54 1020.6
20260502220508 55 67 3.0 7.0 0.00 0.00 0.00 55 1020.7
20260502220032 55 58 0.0 0.0 0.00 0.00 0.00 54 1020.7
20260502215509 55 53 0.0 0.0 0.00 0.00 0.00 54 1020.7
20260502215011 55 54 0.0 0.0 0.00 0.00 0.00 54 1020.7
20260502214511 55 70 0.0 0.0 0.00 0.00 0.00 53 1020.7
20260502214012 55 50 0.0 0.0 0.00 0.00 0.00 53 1020.7
20260502213508 57 55 0.0 0.0 0.00 0.00 0.00 52 1020.7
20260502213021 57 58 0.0 0.0 0.00 0.00 0.00 53 1020.7
20260502212508 57 59 0.0 0.0 0.00 0.00 0.00 52 1020.7
20260502212012 57 73 0.0 0.0 0.00 0.00 0.00 52 1020.7
20260502211512 57 34 0.0 0.0 0.00 0.00 0.00 53 1020.6
20260502211012 57 44 2.0 2.0 0.00 0.00 0.00 52 1020.6
20260502210508 57 65 0.0 0.0 0.00 0.00 0.00 51 1020.5
20260502210030 57 74 0.0 0.0 0.00 0.00 0.00 51 1020.5
20260502205508 57 47 0.0 0.0 0.00 0.00 0.00 51 1020.5
20260502205011 57 47 0.0 0.0 0.00 0.00 0.00 50 1020.5
20260502204511 57 62 0.0 0.0 0.00 0.00 0.00 49 1020.5
20260502204011 59 54 1.0 1.0 0.00 0.00 0.00 48 1020.5
20260502203508 57 69 0.0 0.0 0.00 0.00 0.00 50 1020.5
20260502203021 57 56 0.0 0.0 0.00 0.00 0.00 51 1020.5
20260502202509 57 48 6.0 6.0 0.00 0.00 0.00 51 1020.4
20260502202012 59 43 0.0 0.0 0.00 0.00 0.00 50 1020.5
20260502201511 57 35 2.0 2.0 0.00 0.00 0.00 52 1020.5
20260502201012 57 55 1.0 2.0 0.00 0.00 0.00 53 1020.6
20260502200509 57 68 0.0 0.0 0.00 0.00 0.00 54 1020.7
20260502200028 57 62 0.0 0.0 0.00 0.00 0.00 55 1020.6
20260502195508 57 68 0.0 0.0 0.00 0.00 0.00 55 1020.6